Time,TemperatureF,DewpointF,PressureIn,WindDirection,WindDirectionDegrees,WindSpeedMPH,WindSpeedGustMPH,Humidity,HourlyPrecipIn,Conditions,Clouds,dailyrainin,SoftwareType,DateUTC
2013-01-14 00:03:00,6.0,2.9,30.06,ESE,111,0.0,0.0,87,0.00,,---,0.00,VWS V14.01,2013-01-14 07:03:00,
2013-01-14 00:08:00,6.1,2.9,30.06,ESE,111,0.0,0.0,86,0.00,,---,0.00,VWS V14.01,2013-01-14 07:08:00,
2013-01-14 00:13:00,6.1,2.9,30.06,ESE,111,0.0,0.0,86,0.00,,---,0.00,VWS V14.01,2013-01-14 07:13:00,
2013-01-14 00:18:00,6.0,2.8,30.06,ESE,111,0.0,0.0,86,0.00,,---,0.00,VWS V14.01,2013-01-14 07:18:00,
2013-01-14 00:24:00,6.0,2.8,30.06,ESE,111,0.0,0.0,86,0.00,,---,0.00,VWS V14.01,2013-01-14 07:24:00,
2013-01-14 00:29:00,6.0,2.8,30.05,ESE,111,0.0,0.0,86,0.00,,---,0.00,VWS V14.01,2013-01-14 07:29:00,
2013-01-14 00:34:00,5.8,2.6,30.05,ESE,111,0.0,0.0,86,0.00,,---,0.00,VWS V14.01,2013-01-14 07:34:00,
2013-01-14 00:39:00,5.6,2.4,30.05,ESE,111,0.0,0.0,86,0.00,,---,0.00,VWS V14.01,2013-01-14 07:39:00,
2013-01-14 00:44:00,5.5,2.3,30.05,ESE,111,0.0,0.0,86,0.00,,---,0.00,VWS V14.01,2013-01-14 07:44:00,
2013-01-14 00:49:00,5.3,2.1,30.05,ESE,111,0.0,0.0,86,0.00,,---,0.00,VWS V14.01,2013-01-14 07:49:00,
2013-01-14 00:54:00,5.1,1.9,30.05,ESE,111,0.0,0.0,86,0.00,,---,0.00,VWS V14.01,2013-01-14 07:54:00,
2013-01-14 00:59:00,5.1,2.0,30.05,ESE,111,0.0,0.0,86,0.00,,---,0.00,VWS V14.01,2013-01-14 07:59:00,
2013-01-14 01:04:00,5.0,1.8,30.05,ESE,111,0.0,0.0,86,0.00,,---,0.00,VWS V14.01,2013-01-14 08:04:00,
2013-01-14 01:09:00,4.9,1.7,30.05,ESE,111,0.0,0.0,86,0.00,,---,0.00,VWS V14.01,2013-01-14 08:09:00,
2013-01-14 01:14:00,4.8,1.6,30.04,ESE,111,0.0,0.0,86,0.00,,---,0.00,VWS V14.01,2013-01-14 08:14:00,
2013-01-14 01:19:00,4.8,1.6,30.04,ESE,111,0.0,0.0,86,0.00,,---,0.00,VWS V14.01,2013-01-14 08:19:00,
2013-01-14 01:24:00,4.7,1.6,30.04,ESE,111,0.0,0.0,86,0.00,,---,0.00,VWS V14.01,2013-01-14 08:24:00,
2013-01-14 01:29:00,4.6,1.5,30.04,ESE,111,0.0,0.0,86,0.00,,---,0.00,VWS V14.01,2013-01-14 08:29:00,
2013-01-14 01:34:00,4.6,1.4,30.04,ESE,111,0.0,0.0,86,0.00,,---,0.00,VWS V14.01,2013-01-14 08:34:00,
2013-01-14 01:39:00,4.5,1.4,30.04,ESE,111,0.0,0.0,86,0.00,,---,0.00,VWS V14.01,2013-01-14 08:39:00,
2013-01-14 01:44:00,4.4,1.2,30.05,ESE,111,0.0,0.0,86,0.00,,---,0.00,VWS V14.01,2013-01-14 08:44:00,
2013-01-14 01:49:00,4.2,1.0,30.05,ESE,111,0.0,0.0,86,0.00,,---,0.00,VWS V14.01,2013-01-14 08:49:00,
2013-01-14 01:54:00,4.1,0.9,30.05,ESE,111,0.0,0.0,86,0.00,,---,0.00,VWS V14.01,2013-01-14 08:54:00,
2013-01-14 01:59:00,3.9,0.8,30.05,ESE,111,0.0,0.0,86,0.00,,---,0.00,VWS V14.01,2013-01-14 08:59:00,
2013-01-14 02:04:00,3.9,0.8,30.05,ESE,111,0.0,0.0,86,0.00,,---,0.00,VWS V14.01,2013-01-14 09:04:00,
2013-01-14 02:09:00,3.8,0.6,30.05,ESE,111,0.0,0.0,86,0.00,,---,0.00,VWS V14.01,2013-01-14 09:09:00,
2013-01-14 02:14:00,3.8,0.7,30.05,ESE,111,0.0,0.0,86,0.00,,---,0.00,VWS V14.01,2013-01-14 09:14:00,
2013-01-14 02:19:00,3.7,0.6,30.05,ESE,111,0.0,0.0,86,0.00,,---,0.00,VWS V14.01,2013-01-14 09:19:00,
2013-01-14 02:24:00,3.7,0.6,30.05,ESE,111,0.0,0.0,86,0.00,,---,0.00,VWS V14.01,2013-01-14 09:24:00,
2013-01-14 02:29:00,3.7,0.6,30.05,ESE,111,0.0,0.0,87,0.00,,---,0.00,VWS V14.01,2013-01-14 09:29:00,
2013-01-14 02:34:00,3.8,0.7,30.05,ESE,111,0.0,0.0,86,0.00,,---,0.00,VWS V14.01,2013-01-14 09:34:00,
2013-01-14 02:39:00,3.7,0.6,30.05,ESE,111,0.0,0.0,86,0.00,,---,0.00,VWS V14.01,2013-01-14 09:39:00,
2013-01-14 02:44:00,3.7,0.6,30.05,ESE,111,0.0,0.0,86,0.00,,---,0.00,VWS V14.01,2013-01-14 09:44:00,
2013-01-14 02:49:00,3.5,0.4,30.05,ESE,111,0.0,0.0,86,0.00,,---,0.00,VWS V14.01,2013-01-14 09:49:00,
2013-01-14 02:54:00,3.4,0.2,30.05,ESE,111,0.0,0.0,86,0.00,,---,0.00,VWS V14.01,2013-01-14 09:54:00,
2013-01-14 02:59:00,3.3,0.1,30.05,ESE,111,0.0,0.0,86,0.00,,---,0.00,VWS V14.01,2013-01-14 09:59:00,
2013-01-14 03:04:00,3.4,0.3,30.05,ESE,111,0.0,0.0,86,0.00,,---,0.00,VWS V14.01,2013-01-14 10:04:00,
2013-01-14 03:09:00,3.4,0.3,30.05,ESE,111,0.0,0.0,87,0.00,,---,0.00,VWS V14.01,2013-01-14 10:09:00,
2013-01-14 03:14:00,3.4,0.3,30.05,ESE,111,0.0,0.0,87,0.00,,---,0.00,VWS V14.01,2013-01-14 10:14:00,
2013-01-14 03:19:00,3.5,0.4,30.05,ESE,111,0.0,0.0,87,0.00,,---,0.00,VWS V14.01,2013-01-14 10:19:00,
2013-01-14 03:24:00,3.4,0.3,30.04,ESE,111,0.0,0.0,87,0.00,,---,0.00,VWS V14.01,2013-01-14 10:24:00,
2013-01-14 03:29:00,3.5,0.4,30.05,ESE,111,0.0,0.0,87,0.00,,---,0.00,VWS V14.01,2013-01-14 10:29:00,
2013-01-14 03:34:00,3.4,0.4,30.05,ESE,111,0.0,0.0,87,0.00,,---,0.00,VWS V14.01,2013-01-14 10:34:00,
2013-01-14 03:39:00,3.4,0.3,30.05,ESE,111,0.0,0.0,87,0.00,,---,0.00,VWS V14.01,2013-01-14 10:39:00,
2013-01-14 03:44:00,3.3,0.2,30.05,ESE,111,0.0,0.0,86,0.00,,---,0.00,VWS V14.01,2013-01-14 10:44:00,
2013-01-14 03:49:00,3.4,0.3,30.05,ESE,111,0.0,0.0,87,0.00,,---,0.00,VWS V14.01,2013-01-14 10:49:00,
2013-01-14 03:54:00,3.4,0.3,30.05,ESE,111,0.0,0.0,87,0.00,,---,0.00,VWS V14.01,2013-01-14 10:54:00,
2013-01-14 03:59:00,3.4,0.3,30.05,ESE,111,0.0,0.0,86,0.00,,---,0.00,VWS V14.01,2013-01-14 10:59:00,
2013-01-14 04:04:00,3.5,0.4,30.05,ESE,111,0.0,0.0,87,0.00,,---,0.00,VWS V14.01,2013-01-14 11:04:00,
2013-01-14 04:09:00,3.5,0.5,30.05,ESE,111,0.0,0.0,87,0.00,,---,0.00,VWS V14.01,2013-01-14 11:09:00,
2013-01-14 04:14:00,3.5,0.5,30.04,ESE,111,0.0,0.0,87,0.00,,---,0.00,VWS V14.01,2013-01-14 11:14:00,
2013-01-14 04:19:00,3.7,0.7,30.05,ESE,111,0.0,0.0,87,0.00,,---,0.00,VWS V14.01,2013-01-14 11:19:00,
2013-01-14 04:24:00,3.7,0.6,30.05,ESE,111,0.0,0.0,86,0.00,,---,0.00,VWS V14.01,2013-01-14 11:24:00,
2013-01-14 04:29:00,3.7,0.6,30.05,ESE,111,0.0,0.0,86,0.00,,---,0.00,VWS V14.01,2013-01-14 11:29:00,
2013-01-14 04:34:00,3.6,0.5,30.05,ESE,111,0.0,0.0,87,0.00,,---,0.00,VWS V14.01,2013-01-14 11:34:00,
2013-01-14 04:39:00,3.6,0.5,30.05,ESE,111,0.0,0.0,87,0.00,,---,0.00,VWS V14.01,2013-01-14 11:39:00,
2013-01-14 04:44:00,3.5,0.4,30.05,ESE,111,0.0,0.0,87,0.00,,---,0.00,VWS V14.01,2013-01-14 11:44:00,
2013-01-14 04:49:00,3.6,0.6,30.05,ESE,111,0.0,0.0,87,0.00,,---,0.00,VWS V14.01,2013-01-14 11:49:00,
2013-01-14 04:54:00,3.6,0.6,30.05,ESE,111,0.0,0.0,87,0.00,,---,0.00,VWS V14.01,2013-01-14 11:54:00,
2013-01-14 04:59:00,3.8,0.9,30.05,ESE,111,0.0,0.0,87,0.00,,---,0.00,VWS V14.01,2013-01-14 11:59:00,
2013-01-14 05:04:00,3.8,1.0,30.05,ESE,111,0.0,0.0,88,0.00,,---,0.00,VWS V14.01,2013-01-14 12:04:00,
2013-01-14 05:09:00,3.9,1.1,30.05,ESE,111,0.0,0.0,88,0.00,,---,0.00,VWS V14.01,2013-01-14 12:09:00,
2013-01-14 05:14:00,4.1,1.4,30.05,ESE,111,0.0,0.0,88,0.00,,---,0.00,VWS V14.01,2013-01-14 12:14:00,
2013-01-14 05:19:00,4.2,1.5,30.05,ESE,111,0.0,0.0,88,0.00,,---,0.00,VWS V14.01,2013-01-14 12:19:00,
2013-01-14 05:24:00,4.3,1.7,30.06,ESE,111,0.0,0.0,88,0.00,,---,0.00,VWS V14.01,2013-01-14 12:24:00,
2013-01-14 05:29:00,4.4,1.8,30.06,ESE,111,0.0,0.0,89,0.00,,---,0.00,VWS V14.01,2013-01-14 12:29:00,
2013-01-14 05:34:00,4.5,1.9,30.06,ESE,111,0.0,0.0,89,0.00,,---,0.00,VWS V14.01,2013-01-14 12:34:00,
2013-01-14 05:39:00,4.5,1.9,30.07,ESE,111,0.0,0.0,89,0.00,,---,0.00,VWS V14.01,2013-01-14 12:39:00,
2013-01-14 05:44:00,4.6,2.0,30.07,ESE,111,0.0,0.0,89,0.00,,---,0.00,VWS V14.01,2013-01-14 12:44:00,
2013-01-14 05:49:00,4.7,2.2,30.07,ESE,111,0.0,0.0,89,0.00,,---,0.00,VWS V14.01,2013-01-14 12:49:00,
2013-01-14 05:54:00,4.9,2.4,30.07,ESE,111,0.0,0.0,89,0.00,,---,0.00,VWS V14.01,2013-01-14 12:54:00,
2013-01-14 05:59:00,5.1,2.6,30.07,ESE,111,0.0,0.0,89,0.00,,---,0.00,VWS V14.01,2013-01-14 12:59:00,
2013-01-14 06:04:00,5.1,2.6,30.08,ESE,111,0.0,0.0,89,0.00,,---,0.00,VWS V14.01,2013-01-14 13:04:00,
2013-01-14 06:09:00,5.1,2.7,30.08,ESE,111,0.0,0.0,89,0.00,,---,0.00,VWS V14.01,2013-01-14 13:09:00,
2013-01-14 06:14:00,5.2,2.7,30.08,ESE,111,0.0,0.0,89,0.00,,---,0.00,VWS V14.01,2013-01-14 13:14:00,
2013-01-14 06:19:00,5.2,2.7,30.08,ESE,111,0.0,0.0,89,0.00,,---,0.00,VWS V14.01,2013-01-14 13:19:00,
2013-01-14 06:24:00,5.3,2.8,30.09,ESE,111,0.0,0.0,89,0.00,,---,0.00,VWS V14.01,2013-01-14 13:24:00,
2013-01-14 06:29:00,5.2,2.7,30.09,ESE,111,0.0,0.0,89,0.00,,---,0.00,VWS V14.01,2013-01-14 13:29:00,
2013-01-14 06:34:00,5.2,2.7,30.09,ESE,111,0.0,0.0,89,0.00,,---,0.00,VWS V14.01,2013-01-14 13:34:00,
2013-01-14 06:39:00,5.2,2.7,30.10,ESE,111,0.0,0.0,89,0.00,,---,0.00,VWS V14.01,2013-01-14 13:39:00,
2013-01-14 06:44:00,5.1,2.6,30.10,ESE,111,0.0,0.0,89,0.00,,---,0.00,VWS V14.01,2013-01-14 13:44:00,
2013-01-14 06:49:00,5.1,2.6,30.10,ESE,111,0.0,0.0,89,0.00,,---,0.00,VWS V14.01,2013-01-14 13:49:00,
2013-01-14 06:54:00,5.0,2.5,30.10,ESE,111,0.0,0.0,89,0.00,,---,0.00,VWS V14.01,2013-01-14 13:54:00,
2013-01-14 06:59:00,5.0,2.5,30.10,ESE,111,0.0,0.0,89,0.00,,---,0.00,VWS V14.01,2013-01-14 13:59:00,
2013-01-14 07:04:00,5.0,2.6,30.10,ESE,111,0.0,0.0,89,0.00,,---,0.00,VWS V14.01,2013-01-14 14:04:00,
2013-01-14 07:09:00,5.1,2.7,30.10,ESE,111,0.0,0.0,90,0.00,,---,0.00,VWS V14.01,2013-01-14 14:09:00,
2013-01-14 07:14:00,5.0,2.6,30.11,ESE,111,0.0,0.0,90,0.00,,---,0.00,VWS V14.01,2013-01-14 14:14:00,
2013-01-14 07:19:00,5.1,2.7,30.11,ESE,111,0.0,0.0,90,0.00,,---,0.00,VWS V14.01,2013-01-14 14:19:00,
2013-01-14 07:24:00,5.2,2.8,30.11,ESE,111,0.0,0.0,90,0.00,,---,0.00,VWS V14.01,2013-01-14 14:24:00,
2013-01-14 07:29:00,5.2,2.8,30.11,ESE,111,0.0,0.0,90,0.00,,---,0.00,VWS V14.01,2013-01-14 14:29:00,
2013-01-14 07:34:00,5.4,3.1,30.11,ESE,111,0.0,0.0,90,0.00,,---,0.00,VWS V14.01,2013-01-14 14:34:00,
2013-01-14 07:39:00,5.4,3.0,30.11,ESE,111,0.0,0.0,90,0.00,,---,0.00,VWS V14.01,2013-01-14 14:39:00,
2013-01-14 07:44:00,5.5,3.1,30.12,ESE,111,0.0,0.0,90,0.00,,---,0.00,VWS V14.01,2013-01-14 14:44:00,
2013-01-14 07:49:00,5.6,3.2,30.12,ESE,111,0.0,0.0,90,0.00,,---,0.00,VWS V14.01,2013-01-14 14:49:00,
2013-01-14 07:54:00,5.5,3.2,30.12,ESE,111,0.0,0.0,90,0.00,,---,0.00,VWS V14.01,2013-01-14 14:54:00,
2013-01-14 07:59:00,5.7,3.4,30.12,ESE,111,0.0,0.0,90,0.00,,---,0.00,VWS V14.01,2013-01-14 14:59:00,
2013-01-14 08:04:00,5.8,3.5,30.12,ESE,111,0.0,0.0,90,0.00,,---,0.00,VWS V14.01,2013-01-14 15:04:00,
2013-01-14 08:09:00,5.9,3.6,30.12,ESE,111,0.0,0.0,90,0.00,,---,0.00,VWS V14.01,2013-01-14 15:09:00,
2013-01-14 08:14:00,6.0,3.7,30.12,ESE,111,0.0,0.0,90,0.00,,---,0.00,VWS V14.01,2013-01-14 15:14:00,
2013-01-14 08:19:00,6.0,3.7,30.11,NE,49,0.0,0.0,90,0.00,,---,0.00,VWS V14.01,2013-01-14 15:19:00,
2013-01-14 08:24:00,6.1,3.8,30.12,NE,49,0.0,0.0,90,0.00,,---,0.00,VWS V14.01,2013-01-14 15:24:00,
2013-01-14 08:29:00,6.3,4.0,30.12,NE,49,0.0,0.0,90,0.00,,---,0.00,VWS V14.01,2013-01-14 15:29:00,
2013-01-14 08:34:00,6.6,4.3,30.12,NE,49,0.0,0.0,90,0.00,,---,0.00,VWS V14.01,2013-01-14 15:34:00,
2013-01-14 08:39:00,6.9,4.6,30.12,NE,49,0.0,0.0,90,0.00,,---,0.00,VWS V14.01,2013-01-14 15:39:00,
2013-01-14 08:44:00,7.4,5.1,30.12,NE,49,0.0,0.0,90,0.00,,---,0.00,VWS V14.01,2013-01-14 15:44:00,
2013-01-14 08:49:00,7.7,5.3,30.12,NE,49,0.0,0.0,90,0.00,,---,0.00,VWS V14.01,2013-01-14 15:49:00,
2013-01-14 08:54:00,7.9,5.4,30.12,NE,49,0.0,0.0,89,0.00,,---,0.00,VWS V14.01,2013-01-14 15:54:00,
2013-01-14 08:59:00,8.2,5.6,30.12,NE,49,0.0,0.0,89,0.00,,---,0.00,VWS V14.01,2013-01-14 15:59:00,
2013-01-14 09:04:00,8.2,5.6,30.12,NE,49,0.0,0.0,89,0.00,,---,0.00,VWS V14.01,2013-01-14 16:04:00,
2013-01-14 09:09:00,8.4,5.7,30.12,NE,49,0.0,0.0,89,0.00,,---,0.00,VWS V14.01,2013-01-14 16:09:00,
2013-01-14 09:14:00,8.4,5.7,30.12,NE,49,0.0,0.0,88,0.00,,---,0.00,VWS V14.01,2013-01-14 16:14:00,
2013-01-14 09:19:00,8.5,5.8,30.12,NNE,13,0.0,0.0,88,0.00,,---,0.00,VWS V14.01,2013-01-14 16:19:00,
2013-01-14 09:24:00,8.5,5.7,30.12,NNE,13,0.0,0.0,88,0.00,,---,0.00,VWS V14.01,2013-01-14 16:24:00,
2013-01-14 09:29:00,8.5,5.7,30.12,NNE,13,0.0,0.0,88,0.00,,---,0.00,VWS V14.01,2013-01-14 16:29:00,
2013-01-14 09:34:00,8.7,5.9,30.11,NNE,13,0.0,0.0,88,0.00,,---,0.00,VWS V14.01,2013-01-14 16:34:00,
2013-01-14 09:39:00,8.7,5.8,30.11,NNE,13,0.0,0.0,88,0.00,,---,0.00,VWS V14.01,2013-01-14 16:39:00,
2013-01-14 09:44:00,8.7,5.7,30.11,NNE,13,0.0,0.0,87,0.00,,---,0.00,VWS V14.01,2013-01-14 16:44:00,
2013-01-14 09:49:00,8.8,5.8,30.11,NNE,13,0.0,0.0,87,0.00,,---,0.00,VWS V14.01,2013-01-14 16:49:00,
2013-01-14 09:54:00,8.9,5.9,30.11,NNE,13,0.0,0.0,87,0.00,,---,0.00,VWS V14.01,2013-01-14 16:54:00,
2013-01-14 09:59:00,9.0,6.0,30.11,NNE,13,0.0,0.0,87,0.00,,---,0.00,VWS V14.01,2013-01-14 16:59:00,
2013-01-14 10:04:00,9.1,6.0,30.11,NNE,13,0.0,0.0,87,0.00,,---,0.00,VWS V14.01,2013-01-14 17:04:00,
2013-01-14 10:09:00,9.4,6.3,30.11,NNE,13,0.0,0.0,87,0.00,,---,0.00,VWS V14.01,2013-01-14 17:09:00,
2013-01-14 10:14:00,9.8,6.6,30.11,NNE,13,0.0,0.0,87,0.00,,---,0.00,VWS V14.01,2013-01-14 17:14:00,
2013-01-14 10:19:00,10.1,6.8,30.11,NNE,13,0.0,0.0,86,0.00,,---,0.00,VWS V14.01,2013-01-14 17:19:00,
2013-01-14 10:24:00,10.2,6.8,30.10,NNE,13,0.0,0.0,86,0.00,,---,0.00,VWS V14.01,2013-01-14 17:24:00,
2013-01-14 10:29:00,10.2,6.8,30.10,NNE,13,0.0,0.0,86,0.00,,---,0.00,VWS V14.01,2013-01-14 17:29:00,
2013-01-14 10:34:00,10.2,6.8,30.10,NNE,13,0.0,0.0,86,0.00,,---,0.00,VWS V14.01,2013-01-14 17:34:00,
2013-01-14 10:39:00,10.2,6.7,30.10,NNE,13,0.0,0.0,85,0.00,,---,0.00,VWS V14.01,2013-01-14 17:39:00,
2013-01-14 10:44:00,10.4,6.9,30.10,NNE,13,0.0,0.0,85,0.00,,---,0.00,VWS V14.01,2013-01-14 17:44:00,
2013-01-14 10:49:00,10.6,7.0,30.10,NNE,13,0.0,0.0,85,0.00,,---,0.00,VWS V14.01,2013-01-14 17:49:00,
2013-01-14 10:54:00,10.6,6.8,30.09,NNE,13,0.0,0.0,84,0.00,,---,0.00,VWS V14.01,2013-01-14 17:54:00,
2013-01-14 10:59:00,10.4,6.4,30.09,NNE,13,0.0,0.0,84,0.00,,---,0.00,VWS V14.01,2013-01-14 17:59:00,
2013-01-14 11:04:00,10.7,6.8,30.08,NNE,13,0.0,0.0,84,0.00,,---,0.00,VWS V14.01,2013-01-14 18:04:00,
2013-01-14 11:09:00,11.3,7.4,30.08,NNE,13,0.0,0.0,84,0.00,,---,0.00,VWS V14.01,2013-01-14 18:09:00,
2013-01-14 11:14:00,11.5,7.4,30.07,NNE,13,0.0,0.0,83,0.00,,---,0.00,VWS V14.01,2013-01-14 18:14:00,
2013-01-14 11:19:00,11.6,7.6,30.07,NNE,13,0.0,0.0,83,0.00,,---,0.00,VWS V14.01,2013-01-14 18:19:00,
2013-01-14 11:24:00,11.5,7.4,30.07,East,98,5.7,5.7,83,0.00,,---,0.00,VWS V14.01,2013-01-14 18:24:00,
2013-01-14 11:29:00,11.0,6.8,30.06,ENE,58,0.0,0.0,83,0.00,,---,0.00,VWS V14.01,2013-01-14 18:29:00,
2013-01-14 11:34:00,10.8,6.9,30.06,ENE,58,0.0,0.0,84,0.00,,---,0.00,VWS V14.01,2013-01-14 18:34:00,
2013-01-14 11:39:00,10.6,6.7,30.05,ENE,58,0.0,0.0,84,0.00,,---,0.00,VWS V14.01,2013-01-14 18:39:00,
2013-01-14 11:44:00,10.6,6.6,30.05,ENE,58,0.0,0.0,84,0.00,,---,0.00,VWS V14.01,2013-01-14 18:44:00,
2013-01-14 11:49:00,10.7,6.5,30.05,ENE,58,0.0,0.0,83,0.00,,---,0.00,VWS V14.01,2013-01-14 18:49:00,
2013-01-14 11:54:00,10.9,6.6,30.04,ENE,58,0.0,0.0,82,0.00,,---,0.00,VWS V14.01,2013-01-14 18:54:00,
2013-01-14 11:59:00,11.3,7.1,30.04,ENE,58,0.0,0.0,83,0.00,,---,0.00,VWS V14.01,2013-01-14 18:59:00,
2013-01-14 12:04:00,11.8,7.3,30.03,ENE,58,0.0,0.0,82,0.00,,---,0.00,VWS V14.01,2013-01-14 19:04:00,
2013-01-14 12:09:00,12.7,8.1,30.03,ENE,58,0.0,0.0,82,0.00,,---,0.00,VWS V14.01,2013-01-14 19:09:00,
2013-01-14 12:14:00,13.8,9.0,30.02,ENE,58,0.0,0.0,81,0.00,,---,0.00,VWS V14.01,2013-01-14 19:14:00,
2013-01-14 12:19:00,14.0,8.7,30.02,North,8,5.4,6.0,79,0.00,,---,0.00,VWS V14.01,2013-01-14 19:19:00,
2013-01-14 12:24:00,13.0,7.4,30.02,NNE,20,0.0,0.0,78,0.00,,---,0.00,VWS V14.01,2013-01-14 19:24:00,
2013-01-14 12:29:00,12.3,7.1,30.02,NNE,20,0.0,0.0,79,0.00,,---,0.00,VWS V14.01,2013-01-14 19:29:00,
2013-01-14 12:34:00,11.7,6.4,30.02,NNE,15,0.0,0.0,79,0.00,,---,0.00,VWS V14.01,2013-01-14 19:34:00,
2013-01-14 12:39:00,11.5,6.3,30.02,NNE,15,0.0,0.0,79,0.00,,---,0.00,VWS V14.01,2013-01-14 19:39:00,
2013-01-14 12:44:00,11.8,6.6,30.02,NNE,15,0.0,0.0,79,0.00,,---,0.00,VWS V14.01,2013-01-14 19:44:00,
2013-01-14 12:49:00,12.4,7.0,30.01,NNE,15,0.0,0.0,78,0.00,,---,0.00,VWS V14.01,2013-01-14 19:49:00,
2013-01-14 12:54:00,13.3,7.9,30.01,NNE,15,0.0,0.0,79,0.00,,---,0.00,VWS V14.01,2013-01-14 19:54:00,
2013-01-14 12:59:00,14.1,8.1,30.01,NNE,15,0.0,0.0,77,0.00,,---,0.00,VWS V14.01,2013-01-14 19:59:00,
2013-01-14 13:04:00,13.8,7.6,30.00,ESE,103,3.0,5.7,76,0.00,,---,0.00,VWS V14.01,2013-01-14 20:04:00,
2013-01-14 13:09:00,13.4,7.4,30.00,ESE,115,3.0,5.1,76,0.00,,---,0.00,VWS V14.01,2013-01-14 20:09:00,
2013-01-14 13:14:00,13.1,7.0,30.00,ENE,60,3.4,4.7,76,0.00,,---,0.00,VWS V14.01,2013-01-14 20:14:00,
2013-01-14 13:19:00,12.8,6.8,30.00,NE,39,0.0,0.0,77,0.00,,---,0.00,VWS V14.01,2013-01-14 20:19:00,
2013-01-14 13:24:00,13.2,7.9,30.00,NE,39,0.0,0.0,79,0.00,,---,0.00,VWS V14.01,2013-01-14 20:24:00,
2013-01-14 13:29:00,13.9,7.8,30.00,NE,39,0.0,0.0,76,0.00,,---,0.00,VWS V14.01,2013-01-14 20:29:00,
2013-01-14 13:34:00,13.9,7.4,30.00,NNE,14,6.1,7.9,75,0.00,,---,0.00,VWS V14.01,2013-01-14 20:34:00,
2013-01-14 13:39:00,13.7,7.2,30.00,NNE,17,7.4,7.4,75,0.00,,---,0.00,VWS V14.01,2013-01-14 20:39:00,
2013-01-14 13:44:00,13.5,7.1,30.00,NE,53,3.3,6.1,75,0.00,,---,0.00,VWS V14.01,2013-01-14 20:44:00,
2013-01-14 13:49:00,13.2,6.4,30.01,ENE,73,5.3,7.0,74,0.00,,---,0.00,VWS V14.01,2013-01-14 20:49:00,
2013-01-14 13:54:00,13.1,6.6,30.01,NE,44,0.0,0.0,75,0.00,,---,0.00,VWS V14.01,2013-01-14 20:54:00,
2013-01-14 13:59:00,13.1,6.5,30.01,North,10,0.0,0.0,74,0.00,,---,0.00,VWS V14.01,2013-01-14 20:59:00,
2013-01-14 14:04:00,13.5,7.0,30.01,SE,146,6.7,7.3,75,0.00,,---,0.00,VWS V14.01,2013-01-14 21:04:00,
2013-01-14 14:09:00,13.5,6.6,30.02,North,11,6.9,7.6,74,0.00,,---,0.00,VWS V14.01,2013-01-14 21:09:00,
2013-01-14 14:14:00,12.9,6.1,30.02,NNE,31,6.5,8.7,74,0.00,,---,0.00,VWS V14.01,2013-01-14 21:14:00,
2013-01-14 14:19:00,12.4,5.8,30.02,NNW,342,3.1,4.9,74,0.00,,---,0.00,VWS V14.01,2013-01-14 21:19:00,
2013-01-14 14:24:00,12.4,6.0,30.02,North,359,0.0,0.0,75,0.00,,---,0.00,VWS V14.01,2013-01-14 21:24:00,
2013-01-14 14:29:00,12.7,6.4,30.02,North,359,0.0,0.0,75,0.00,,---,0.00,VWS V14.01,2013-01-14 21:29:00,
2013-01-14 14:34:00,13.1,6.7,30.02,North,359,0.0,0.0,75,0.00,,---,0.00,VWS V14.01,2013-01-14 21:34:00,
2013-01-14 14:39:00,13.4,6.6,30.02,North,359,0.0,0.0,74,0.00,,---,0.00,VWS V14.01,2013-01-14 21:39:00,
2013-01-14 14:44:00,13.6,6.8,30.02,North,359,0.0,0.0,74,0.00,,---,0.00,VWS V14.01,2013-01-14 21:44:00,
2013-01-14 14:49:00,13.6,6.8,30.02,North,359,0.0,0.0,74,0.00,,---,0.00,VWS V14.01,2013-01-14 21:49:00,
2013-01-14 14:54:00,13.4,6.5,30.02,North,3,0.0,0.0,73,0.00,,---,0.00,VWS V14.01,2013-01-14 21:54:00,
2013-01-14 14:59:00,13.5,6.7,30.02,North,3,0.0,0.0,74,0.13,,---,0.13,VWS V14.01,2013-01-14 21:59:00,
2013-01-14 15:04:00,13.6,6.8,30.03,NE,45,3.1,4.3,74,0.17,,---,0.17,VWS V14.01,2013-01-14 22:04:00,
2013-01-14 15:09:00,13.6,6.7,30.03,NNE,14,3.3,3.3,73,0.17,,---,0.17,VWS V14.01,2013-01-14 22:09:00,
2013-01-14 15:14:00,13.5,6.4,30.03,NNE,15,0.0,0.0,73,0.17,,---,0.17,VWS V14.01,2013-01-14 22:14:00,
2013-01-14 15:19:00,13.4,6.3,30.03,NNE,15,0.0,0.0,73,0.17,,---,0.17,VWS V14.01,2013-01-14 22:19:00,
2013-01-14 15:24:00,13.4,6.3,30.03,NNE,15,0.0,0.0,73,0.17,,---,0.17,VWS V14.01,2013-01-14 22:24:00,
2013-01-14 15:29:00,13.3,6.2,30.04,NE,42,0.0,4.3,73,0.17,,---,0.17,VWS V14.01,2013-01-14 22:29:00,
2013-01-14 15:34:00,13.4,6.3,30.04,NE,42,0.0,0.0,73,0.17,,---,0.17,VWS V14.01,2013-01-14 22:34:00,
2013-01-14 15:39:00,13.5,6.3,30.04,NE,42,0.0,0.0,73,0.17,,---,0.17,VWS V14.01,2013-01-14 22:39:00,
2013-01-14 15:44:00,13.6,6.4,30.04,ENE,69,0.0,0.0,72,0.17,,---,0.17,VWS V14.01,2013-01-14 22:44:00,
2013-01-14 15:49:00,13.6,6.3,30.04,ENE,69,0.0,0.0,72,0.17,,---,0.17,VWS V14.01,2013-01-14 22:49:00,
2013-01-14 15:54:00,13.6,6.3,30.04,ENE,69,0.0,0.0,72,0.17,,---,0.17,VWS V14.01,2013-01-14 22:54:00,
2013-01-14 15:59:00,13.5,6.2,30.05,ENE,69,0.0,0.0,72,0.04,,---,0.17,VWS V14.01,2013-01-14 22:59:00,
2013-01-14 16:04:00,13.3,5.9,30.05,NE,56,0.0,0.0,72,0.00,,---,0.17,VWS V14.01,2013-01-14 23:04:00,
2013-01-14 16:09:00,13.1,5.8,30.05,NE,56,0.0,0.0,72,0.00,,---,0.17,VWS V14.01,2013-01-14 23:09:00,
2013-01-14 16:14:00,13.0,5.7,30.05,NE,56,0.0,0.0,72,0.00,,---,0.17,VWS V14.01,2013-01-14 23:14:00,
2013-01-14 16:19:00,12.8,5.6,30.05,NE,56,0.0,0.0,72,0.00,,---,0.17,VWS V14.01,2013-01-14 23:19:00,
2013-01-14 16:24:00,12.6,5.3,30.05,NE,56,0.0,0.0,72,0.00,,---,0.17,VWS V14.01,2013-01-14 23:24:00,
2013-01-14 16:29:00,12.5,5.4,30.05,NE,56,0.0,0.0,73,0.00,,---,0.17,VWS V14.01,2013-01-14 23:29:00,
2013-01-14 16:34:00,12.4,5.2,30.06,NE,56,0.0,0.0,72,0.00,,---,0.17,VWS V14.01,2013-01-14 23:34:00,
2013-01-14 16:39:00,12.3,5.1,30.06,NE,56,0.0,0.0,72,0.00,,---,0.17,VWS V14.01,2013-01-14 23:39:00,
2013-01-14 16:44:00,12.3,5.1,30.06,NE,56,0.0,0.0,72,0.00,,---,0.17,VWS V14.01,2013-01-14 23:44:00,
2013-01-14 16:49:00,12.2,5.0,30.06,NE,56,0.0,0.0,72,0.00,,---,0.17,VWS V14.01,2013-01-14 23:49:00,
2013-01-14 16:54:00,12.1,5.0,30.07,NE,56,0.0,0.0,73,0.00,,---,0.17,VWS V14.01,2013-01-14 23:54:00,
2013-01-14 16:59:00,12.0,5.0,30.07,NE,56,0.0,0.0,73,0.00,,---,0.17,VWS V14.01,2013-01-14 23:59:00,
2013-01-14 17:04:00,12.0,5.0,30.07,NE,56,0.0,0.0,73,0.00,,---,0.17,VWS V14.01,2013-01-15 00:04:00,
2013-01-14 17:09:00,11.9,5.0,30.07,NE,56,0.0,0.0,73,0.00,,---,0.17,VWS V14.01,2013-01-15 00:09:00,
2013-01-14 17:14:00,11.8,4.9,30.07,NE,56,0.0,0.0,73,0.00,,---,0.17,VWS V14.01,2013-01-15 00:14:00,
2013-01-14 17:19:00,11.8,4.9,30.08,NE,56,0.0,0.0,73,0.00,,---,0.17,VWS V14.01,2013-01-15 00:19:00,
2013-01-14 17:24:00,11.7,4.9,30.07,NE,56,0.0,0.0,74,0.00,,---,0.17,VWS V14.01,2013-01-15 00:24:00,
2013-01-14 17:29:00,11.5,4.9,30.08,NE,56,0.0,0.0,74,0.00,,---,0.17,VWS V14.01,2013-01-15 00:29:00,
2013-01-14 17:34:00,11.3,4.8,30.08,NE,56,0.0,0.0,75,0.00,,---,0.17,VWS V14.01,2013-01-15 00:34:00,
2013-01-14 17:39:00,11.1,4.7,30.08,NE,56,0.0,0.0,75,0.00,,---,0.17,VWS V14.01,2013-01-15 00:39:00,
2013-01-14 17:44:00,11.0,4.8,30.08,NE,56,0.0,0.0,76,0.00,,---,0.17,VWS V14.01,2013-01-15 00:44:00,
2013-01-14 17:49:00,11.0,4.9,30.08,NE,56,0.0,0.0,76,0.00,,---,0.17,VWS V14.01,2013-01-15 00:49:00,
2013-01-14 17:54:00,10.9,4.9,30.08,NE,56,0.0,0.0,76,0.00,,---,0.17,VWS V14.01,2013-01-15 00:54:00,
2013-01-14 17:59:00,10.8,4.9,30.08,NE,56,0.0,0.0,77,0.00,,---,0.17,VWS V14.01,2013-01-15 00:59:00,
2013-01-14 18:04:00,10.8,5.0,30.08,NE,56,0.0,0.0,77,0.00,,---,0.17,VWS V14.01,2013-01-15 01:04:00,
2013-01-14 18:09:00,10.6,4.8,30.08,NE,56,0.0,0.0,77,0.00,,---,0.17,VWS V14.01,2013-01-15 01:09:00,
2013-01-14 18:14:00,10.3,4.6,30.08,NE,56,0.0,0.0,77,0.00,,---,0.17,VWS V14.01,2013-01-15 01:14:00,
2013-01-14 18:19:00,10.1,4.4,30.08,NE,56,0.0,0.0,77,0.00,,---,0.17,VWS V14.01,2013-01-15 01:19:00,
2013-01-14 18:24:00,9.8,4.3,30.08,NE,56,0.0,0.0,78,0.00,,---,0.17,VWS V14.01,2013-01-15 01:24:00,
2013-01-14 18:29:00,9.5,4.1,30.08,NE,56,0.0,0.0,78,0.00,,---,0.17,VWS V14.01,2013-01-15 01:29:00,
2013-01-14 18:34:00,9.4,4.1,30.08,NE,56,0.0,0.0,78,0.00,,---,0.17,VWS V14.01,2013-01-15 01:34:00,
2013-01-14 18:39:00,9.2,4.0,30.08,NE,56,0.0,0.0,79,0.00,,---,0.17,VWS V14.01,2013-01-15 01:39:00,
2013-01-14 18:44:00,9.0,4.0,30.08,NE,56,0.0,0.0,80,0.00,,---,0.17,VWS V14.01,2013-01-15 01:44:00,
2013-01-14 18:49:00,8.9,4.0,30.08,NE,56,0.0,0.0,80,0.00,,---,0.17,VWS V14.01,2013-01-15 01:49:00,
2013-01-14 18:54:00,8.7,3.8,30.08,NE,56,0.0,0.0,80,0.00,,---,0.17,VWS V14.01,2013-01-15 01:54:00,
2013-01-14 18:59:00,8.5,3.7,30.08,NE,56,0.0,0.0,80,0.00,,---,0.17,VWS V14.01,2013-01-15 01:59:00,
2013-01-14 19:04:00,8.3,3.7,30.08,NE,56,0.0,0.0,81,0.00,,---,0.17,VWS V14.01,2013-01-15 02:04:00,
2013-01-14 19:09:00,8.1,3.6,30.08,NE,56,0.0,0.0,81,0.00,,---,0.17,VWS V14.01,2013-01-15 02:09:00,
2013-01-14 19:14:00,7.9,3.5,30.08,NE,56,0.0,0.0,82,0.00,,---,0.17,VWS V14.01,2013-01-15 02:14:00,
2013-01-14 19:19:00,7.9,3.6,30.08,NE,56,0.0,0.0,82,0.00,,---,0.17,VWS V14.01,2013-01-15 02:19:00,
2013-01-14 19:24:00,7.7,3.4,30.08,NE,56,0.0,0.0,82,0.00,,---,0.17,VWS V14.01,2013-01-15 02:24:00,
2013-01-14 19:29:00,7.6,3.4,30.08,NE,56,0.0,0.0,82,0.00,,---,0.17,VWS V14.01,2013-01-15 02:29:00,
2013-01-14 19:34:00,7.5,3.4,30.08,NE,56,0.0,0.0,83,0.00,,---,0.17,VWS V14.01,2013-01-15 02:34:00,
2013-01-14 19:39:00,7.3,3.2,30.07,NE,56,0.0,0.0,83,0.00,,---,0.17,VWS V14.01,2013-01-15 02:39:00,
2013-01-14 19:44:00,7.2,3.2,30.07,NE,56,0.0,0.0,83,0.00,,---,0.17,VWS V14.01,2013-01-15 02:44:00,
2013-01-14 19:49:00,7.1,3.2,30.07,NE,56,0.0,0.0,84,0.00,,---,0.17,VWS V14.01,2013-01-15 02:49:00,
2013-01-14 19:54:00,7.0,3.2,30.07,NE,56,0.0,0.0,84,0.00,,---,0.17,VWS V14.01,2013-01-15 02:54:00,
2013-01-14 19:59:00,6.9,3.1,30.07,NE,56,0.0,0.0,84,0.00,,---,0.17,VWS V14.01,2013-01-15 02:59:00,
2013-01-14 20:04:00,6.8,3.0,30.07,NE,56,0.0,0.0,84,0.00,,---,0.17,VWS V14.01,2013-01-15 03:04:00,
2013-01-14 20:09:00,6.8,3.1,30.07,NE,56,0.0,0.0,84,0.00,,---,0.17,VWS V14.01,2013-01-15 03:09:00,
2013-01-14 20:14:00,6.6,2.9,30.07,NE,56,0.0,0.0,84,0.00,,---,0.17,VWS V14.01,2013-01-15 03:14:00,
2013-01-14 20:19:00,6.6,3.0,30.07,NE,56,0.0,0.0,85,0.00,,---,0.17,VWS V14.01,2013-01-15 03:19:00,
2013-01-14 20:24:00,6.5,2.9,30.07,NE,56,0.0,0.0,85,0.00,,---,0.17,VWS V14.01,2013-01-15 03:24:00,
2013-01-14 20:29:00,6.3,2.7,30.06,NE,56,0.0,0.0,85,0.00,,---,0.17,VWS V14.01,2013-01-15 03:29:00,
2013-01-14 20:34:00,6.3,2.7,30.06,NE,56,0.0,0.0,85,0.00,,---,0.17,VWS V14.01,2013-01-15 03:34:00,
2013-01-14 20:39:00,6.1,2.6,30.06,NE,56,0.0,0.0,85,0.01,,---,0.18,VWS V14.01,2013-01-15 03:39:00,
2013-01-14 20:44:00,6.0,2.5,30.06,NE,56,0.0,0.0,85,0.01,,---,0.18,VWS V14.01,2013-01-15 03:44:00,
2013-01-14 20:49:00,5.9,2.5,30.06,NE,56,0.0,0.0,85,0.01,,---,0.18,VWS V14.01,2013-01-15 03:49:00,
2013-01-14 20:54:00,5.8,2.4,30.06,NE,56,0.0,0.0,86,0.01,,---,0.18,VWS V14.01,2013-01-15 03:54:00,
2013-01-14 20:59:00,5.8,2.4,30.06,NE,56,0.0,0.0,86,0.01,,---,0.18,VWS V14.01,2013-01-15 03:59:00,
2013-01-14 21:04:00,5.6,2.2,30.06,NE,56,0.0,0.0,86,0.01,,---,0.18,VWS V14.01,2013-01-15 04:04:00,
2013-01-14 21:09:00,5.5,2.1,30.06,NE,56,0.0,0.0,86,0.01,,---,0.18,VWS V14.01,2013-01-15 04:09:00,
2013-01-14 21:14:00,5.4,2.0,30.06,NE,56,0.0,0.0,85,0.01,,---,0.18,VWS V14.01,2013-01-15 04:14:00,
2013-01-14 21:19:00,5.2,1.7,30.05,NE,56,0.0,0.0,85,0.01,,---,0.18,VWS V14.01,2013-01-15 04:19:00,
2013-01-14 21:24:00,5.0,1.6,30.05,NE,56,0.0,0.0,86,0.01,,---,0.18,VWS V14.01,2013-01-15 04:24:00,
2013-01-14 21:29:00,4.9,1.5,30.05,NE,56,0.0,0.0,86,0.01,,---,0.18,VWS V14.01,2013-01-15 04:29:00,
2013-01-14 21:34:00,4.8,1.5,30.05,NE,56,0.0,0.0,86,0.01,,---,0.18,VWS V14.01,2013-01-15 04:34:00,
2013-01-14 21:39:00,4.8,1.4,30.05,NE,56,0.0,0.0,86,0.00,,---,0.18,VWS V14.01,2013-01-15 04:39:00,
2013-01-14 21:44:00,4.6,1.2,30.05,NE,56,0.0,0.0,86,0.00,,---,0.18,VWS V14.01,2013-01-15 04:44:00,
2013-01-14 21:49:00,4.6,1.3,30.05,NE,56,0.0,0.0,86,0.00,,---,0.18,VWS V14.01,2013-01-15 04:49:00,
2013-01-14 21:54:00,4.6,1.3,30.04,NE,56,0.0,0.0,86,0.00,,---,0.18,VWS V14.01,2013-01-15 04:54:00,
2013-01-14 21:59:00,4.5,1.2,30.04,NE,56,0.0,0.0,86,0.00,,---,0.18,VWS V14.01,2013-01-15 04:59:00,
2013-01-14 22:00:00,4.5,1.2,30.04,NE,56,0.0,0.0,86,0.00,,---,0.18,VWS V14.01,2013-01-15 05:00:00,
2013-01-14 22:01:00,4.6,1.3,30.04,NE,56,0.0,0.0,86,0.00,,---,0.18,VWS V14.01,2013-01-15 05:01:00,
2013-01-14 22:02:00,4.6,1.3,30.04,NE,56,0.0,0.0,86,0.00,,---,0.18,VWS V14.01,2013-01-15 05:02:00,
2013-01-14 22:07:00,4.7,1.4,30.05,NE,56,0.0,0.0,86,0.00,,---,0.18,VWS V14.01,2013-01-15 05:07:00,
2013-01-14 22:12:00,4.7,1.4,30.04,NE,56,0.0,0.0,86,0.00,,---,0.18,VWS V14.01,2013-01-15 05:12:00,
2013-01-14 22:17:00,4.8,1.5,30.04,NE,56,0.0,0.0,86,0.00,,---,0.18,VWS V14.01,2013-01-15 05:17:00,
2013-01-14 22:22:00,4.7,1.4,30.04,NE,56,0.0,0.0,86,0.00,,---,0.18,VWS V14.01,2013-01-15 05:22:00,
2013-01-14 22:27:00,4.7,1.4,30.04,NE,56,0.0,0.0,86,0.00,,---,0.18,VWS V14.01,2013-01-15 05:27:00,
2013-01-14 22:32:00,4.6,1.2,30.04,NE,56,0.0,0.0,86,0.00,,---,0.18,VWS V14.01,2013-01-15 05:32:00,
2013-01-14 22:37:00,4.5,1.1,30.04,NE,56,0.0,0.0,86,0.00,,---,0.18,VWS V14.01,2013-01-15 05:37:00,
2013-01-14 22:42:00,4.4,1.0,30.04,NE,56,0.0,0.0,85,0.00,,---,0.18,VWS V14.01,2013-01-15 05:42:00,
2013-01-14 22:47:00,4.3,0.9,30.05,NE,56,0.0,0.0,85,0.00,,---,0.18,VWS V14.01,2013-01-15 05:47:00,
2013-01-14 22:52:00,4.1,0.7,30.04,NE,56,0.0,0.0,85,0.00,,---,0.18,VWS V14.01,2013-01-15 05:52:00,
2013-01-14 22:57:00,4.0,0.5,30.04,NE,56,0.0,0.0,85,0.00,,---,0.18,VWS V14.01,2013-01-15 05:57:00,
2013-01-14 23:02:00,3.9,0.5,30.04,NE,56,0.0,0.0,85,0.00,,---,0.18,VWS V14.01,2013-01-15 06:02:00,
2013-01-14 23:07:00,3.7,0.3,30.04,NE,56,0.0,0.0,85,0.00,,---,0.18,VWS V14.01,2013-01-15 06:07:00,
2013-01-14 23:12:00,3.6,0.2,30.04,NE,56,0.0,0.0,85,0.00,,---,0.18,VWS V14.01,2013-01-15 06:12:00,
2013-01-14 23:17:00,3.4,0.0,30.04,NE,56,0.0,0.0,85,0.00,,---,0.18,VWS V14.01,2013-01-15 06:17:00,
2013-01-14 23:22:00,3.5,0.0,30.04,NE,56,0.0,0.0,85,0.00,,---,0.18,VWS V14.01,2013-01-15 06:22:00,
2013-01-14 23:27:00,3.2,-0.2,30.04,NE,56,0.0,0.0,85,0.00,,---,0.18,VWS V14.01,2013-01-15 06:27:00,
2013-01-14 23:32:00,3.1,-0.3,30.04,NE,56,0.0,0.0,85,0.00,,---,0.18,VWS V14.01,2013-01-15 06:32:00,
2013-01-14 23:37:00,3.1,-0.3,30.04,NE,56,0.0,0.0,85,0.00,,---,0.18,VWS V14.01,2013-01-15 06:37:00,
2013-01-14 23:42:00,2.9,-0.5,30.03,NE,56,0.0,0.0,85,0.00,,---,0.18,VWS V14.01,2013-01-15 06:42:00,
2013-01-14 23:47:00,2.8,-0.6,30.03,NE,56,0.0,0.0,85,0.00,,---,0.18,VWS V14.01,2013-01-15 06:47:00,
2013-01-14 23:52:00,2.6,-0.8,30.03,NE,56,0.0,0.0,85,0.00,,---,0.18,VWS V14.01,2013-01-15 06:52:00,
2013-01-14 23:57:00,2.5,-0.9,30.03,NE,56,0.0,0.0,85,0.00,,---,0.18,VWS V14.01,2013-01-15 06:57:00,